| time (UTC) | temp F | wind direction | speed knots | gust knots | rain 1hr in | rain 24hr in | rain mn in | humidity % | barometer mb |
| 20260506163017 | 62 | 175 | 0.9 | 7.0 | 0.00 | 0.06 | 0.06 | 89 | 1008.5 |
| 20260506161510 | 62 | 158 | 0.0 | 7.8 | 0.00 | 0.06 | 0.06 | 89 | 1009.0 |
| 20260506160012 | 61 | 159 | 0.0 | 4.3 | 0.00 | 0.06 | 0.06 | 89 | 1008.7 |
| 20260506154506 | 61 | 163 | 0.0 | 4.3 | 0.01 | 0.06 | 0.06 | 89 | 1008.8 |
| 20260506153003 | 61 | 161 | 1.7 | 9.6 | 0.02 | 0.06 | 0.06 | 89 | 1008.7 |
| 20260506151501 | 61 | 164 | 0.9 | 5.2 | 0.05 | 0.06 | 0.06 | 88 | 1008.7 |
| 20260506144600 | 61 | 161 | 2.6 | 8.7 | 0.04 | 0.05 | 0.05 | 86 | 1009.1 |
| 20260506143056 | 62 | 160 | 0.9 | 8.7 | 0.03 | 0.04 | 0.04 | 85 | 1009.4 |
| 20260506141557 | 62 | 160 | 0.0 | 4.3 | 0.02 | 0.02 | 0.02 | 83 | 1009.4 |
| 20260506134551 | 62 | 156 | 0.0 | 2.6 | 0.01 | 0.01 | 0.01 | 81 | 1009.0 |
| 20260506133053 | 62 | 155 | 0.0 | 5.2 | 0.01 | 0.01 | 0.01 | 79 | 1009.1 |
| 20260506131549 | 63 | 155 | 0.0 | 4.3 | 0.00 | 0.00 | 0.00 | 76 | 1009.2 |
| 20260506130052 | 63 | 157 | 0.0 | 6.1 | 0.00 | 0.00 | 0.00 | 75 | 1009.3 |
| 20260506124543 | 63 | 155 | 1.7 | 7.8 | 0.00 | 0.00 | 0.00 | 72 | 1009.2 |
| 20260506123042 | 64 | 163 | 0.0 | 5.2 | 0.00 | 0.00 | 0.00 | 70 | 1008.9 |
| 20260506121541 | 64 | 163 | 0.9 | 5.2 | 0.00 | 0.00 | 0.00 | 69 | 1009.0 |
| 20260506120042 | 64 | 154 | 0.0 | 4.3 | 0.00 | 0.00 | 0.00 | 68 | 1009.0 |
| 20260506114544 | 64 | 164 | 0.0 | 5.2 | 0.00 | 0.00 | 0.00 | 68 | 1009.2 |
| 20260506113038 | 64 | 164 | 1.7 | 6.1 | 0.00 | 0.00 | 0.00 | 68 | 1009.1 |
| 20260506111542 | 65 | 163 | 0.0 | 9.6 | 0.00 | 0.00 | 0.00 | 68 | 1009.0 |
| 20260506110037 | 65 | 159 | 0.0 | 4.3 | 0.00 | 0.00 | 0.00 | 68 | 1008.7 |
| 20260506104541 | 65 | 158 | 1.7 | 7.0 | 0.00 | 0.00 | 0.00 | 68 | 1008.7 |
| 20260506103033 | 65 | 160 | 0.9 | 6.1 | 0.00 | 0.00 | 0.00 | 68 | 1008.8 |
| 20260506101536 | 65 | 150 | 0.9 | 6.1 | 0.00 | 0.00 | 0.00 | 68 | 1008.8 |
| 20260506100033 | 65 | 161 | 0.0 | 3.5 | 0.00 | 0.00 | 0.00 | 67 | 1008.9 |
| 20260506094531 | 65 | 165 | 0.0 | 0.9 | 0.00 | 0.00 | 0.00 | 67 | 1008.8 |
| 20260506093052 | 65 | 153 | 0.0 | 7.8 | 0.00 | 0.00 | 0.00 | 66 | 1008.6 |
| 20260506091529 | 65 | 161 | 0.0 | 2.6 | 0.00 | 0.00 | 0.00 | 66 | 1008.8 |
| 20260506090028 | 65 | 166 | 0.0 | 6.1 | 0.00 | 0.00 | 0.00 | 66 | 1008.8 |
| 20260506084527 | 65 | 161 | 0.9 | 4.3 | 0.00 | 0.00 | 0.00 | 65 | 1009.0 |
| 20260506083026 | 65 | 161 | 1.7 | 7.8 | 0.00 | 0.00 | 0.00 | 65 | 1009.0 |
| 20260506081525 | 65 | 159 | 0.0 | 2.6 | 0.00 | 0.00 | 0.00 | 64 | 1009.1 |
| 20260506073020 | 66 | 159 | 0.9 | 6.1 | 0.00 | 0.00 | 0.00 | 61 | 1009.0 |
| 20260506071519 | 67 | 176 | 0.0 | 7.8 | 0.00 | 0.00 | 0.00 | 60 | 1009.1 |
| 20260506061511 | 68 | 167 | 0.9 | 7.0 | 0.00 | 0.00 | 0.00 | 56 | 1009.3 |
| 20260506044501 | 71 | 157 | 1.7 | 9.6 | 0.00 | 0.00 | 0.00 | 51 | 1009.8 |
| 20260506043100 | 71 | 161 | 1.7 | 7.8 | 0.00 | 0.00 | 0.00 | 50 | 1009.8 |
| 20260506041610 | 71 | 157 | 2.6 | 9.6 | 0.00 | 0.00 | 0.00 | 49 | 1009.9 |
| 20260506034603 | 72 | 157 | 0.0 | 10.4 | 0.00 | 0.00 | 0.00 | 47 | 1009.7 |
| 20260506033059 | 72 | 169 | 0.0 | 8.7 | 0.00 | 0.00 | 0.00 | 47 | 1009.7 |
| 20260506031600 | 72 | 159 | 0.0 | 5.2 | 0.00 | 0.00 | 0.00 | 47 | 1009.7 |
| 20260506030057 | 71 | 153 | 0.0 | 5.2 | 0.00 | 0.00 | 0.00 | 47 | 1009.8 |
| 20260506024608 | 72 | 150 | 0.0 | 0.9 | 0.00 | 0.00 | 0.00 | 46 | 1010.0 |
| 20260506023057 | 72 | 168 | 0.0 | 2.6 | 0.00 | 0.00 | 0.00 | 45 | 1009.9 |
| 20260506021555 | 72 | 168 | 0.0 | 1.7 | 0.00 | 0.00 | 0.00 | 44 | 1009.9 |
| 20260506020121 | 73 | 158 | 0.0 | 2.6 | 0.00 | 0.00 | 0.00 | 42 | 1010.0 |
| 20260506014554 | 73 | 157 | 0.0 | 0.9 | 0.00 | 0.00 | 0.00 | 41 | 1009.9 |
| 20260506013053 | 74 | 157 | 0.0 | 7.0 | 0.00 | 0.00 | 0.00 | 39 | 1009.7 |
| 20260506011554 | 74 | 159 | 0.0 | 4.3 | 0.00 | 0.00 | 0.00 | 37 | 1009.4 |
| 20260506010053 | 75 | 162 | 0.9 | 5.2 | 0.00 | 0.00 | 0.00 | 36 | 1009.3 |
| 20260506004552 | 75 | 164 | 0.9 | 9.6 | 0.00 | 0.00 | 0.00 | 35 | 1009.2 |
| 20260506003052 | 76 | 156 | 0.0 | 5.2 | 0.00 | 0.00 | 0.00 | 34 | 1009.1 |
| 20260506001602 | 76 | 155 | 0.0 | 1.7 | 0.00 | 0.00 | 0.00 | 32 | 1009.0 |
| 20260506000118 | 77 | 155 | 0.0 | 5.2 | 0.00 | 0.00 | 0.00 | 31 | 1008.7 |
| 20260505234550 | 77 | 153 | 0.0 | 5.2 | 0.00 | 0.00 | 0.00 | 30 | 1008.7 |
| 20260505233053 | 78 | 153 | 0.0 | 6.1 | 0.00 | 0.00 | 0.00 | 28 | 1008.6 |
| 20260505231555 | 79 | 166 | 0.0 | 6.1 | 0.00 | 0.00 | 0.00 | 28 | 1008.7 |
| 20260505230051 | 79 | 155 | 0.0 | 4.3 | 0.00 | 0.00 | 0.00 | 26 | 1008.5 |
| 20260505224551 | 80 | 153 | 0.9 | 11.3 | 0.00 | 0.00 | 0.00 | 25 | 1008.7 |
| 20260505223048 | 81 | 151 | 2.6 | 8.7 | 0.00 | 0.00 | 0.00 | 24 | 1008.6 |
| 20260505221555 | 81 | 144 | 3.5 | 15.6 | 0.00 | 0.00 | 0.00 | 23 | 1008.5 |
| 20260505214554 | 81 | 164 | 0.9 | 7.0 | 0.00 | 0.00 | 0.00 | 25 | 1008.5 |
| 20260505213045 | 81 | 148 | 0.9 | 13.9 | 0.00 | 0.00 | 0.00 | 23 | 1008.5 |
| 20260505211609 | 82 | 160 | 2.6 | 8.7 | 0.00 | 0.00 | 0.00 | 21 | 1008.3 |
| 20260505210046 | 83 | 184 | 0.0 | 6.1 | 0.00 | 0.00 | 0.00 | 22 | 1008.2 |
| 20260505204556 | 82 | 157 | 0.9 | 14.8 | 0.00 | 0.00 | 0.00 | 21 | 1008.3 |
| 20260505203043 | 83 | 163 | 2.6 | 8.7 | 0.00 | 0.00 | 0.00 | 21 | 1008.3 |
| 20260505201542 | 83 | 170 | 1.7 | 8.7 | 0.00 | 0.00 | 0.00 | 22 | 1008.3 |
| 20260505200041 | 83 | 186 | 1.7 | 8.7 | 0.00 | 0.00 | 0.00 | 22 | 1008.4 |
| 20260505194539 | 83 | 161 | 0.9 | 6.1 | 0.00 | 0.00 | 0.00 | 24 | 1008.4 |
| 20260505193037 | 83 | 151 | 3.5 | 9.6 | 0.00 | 0.00 | 0.00 | 22 | 1008.7 |
| 20260505191536 | 83 | 159 | 3.5 | 15.6 | 0.00 | 0.00 | 0.00 | 23 | 1009.0 |
| 20260505190034 | 83 | 164 | 1.7 | 19.1 | 0.00 | 0.00 | 0.00 | 23 | 1009.4 |
| 20260505184539 | 82 | 162 | 0.0 | 7.8 | 0.00 | 0.00 | 0.00 | 25 | 1009.7 |
| 20260505183030 | 82 | 167 | 4.3 | 13.0 | 0.00 | 0.00 | 0.00 | 24 | 1009.8 |
| 20260505181530 | 82 | 200 | 1.7 | 4.3 | 0.00 | 0.00 | 0.00 | 25 | 1009.8 |
| 20260505180026 | 82 | 173 | 3.5 | 10.4 | 0.00 | 0.00 | 0.00 | 26 | 1010.1 |
| 20260505174535 | 81 | 146 | 4.3 | 13.0 | 0.00 | 0.00 | 0.00 | 26 | 1010.2 |
| 20260505173024 | 81 | 160 | 2.6 | 11.3 | 0.00 | 0.00 | 0.00 | 27 | 1010.1 |
| 20260505171532 | 80 | 157 | 2.6 | 12.2 | 0.00 | 0.00 | 0.00 | 28 | 1010.3 |
| 20260505170024 | 81 | 145 | 2.6 | 10.4 | 0.00 | 0.00 | 0.00 | 28 | 1010.5 |
| 20260505164521 | 80 | 160 | 0.0 | 6.1 | 0.00 | 0.00 | 0.00 | 30 | 1010.8 |